{"data":{"norad_id":60317,"intl_designator":"2024-133S","name":"STARLINK-32189","alt_names":[],"object_type":"PAYLOAD","status":"ACTIVE","operator":null,"country":"US","launch_date":"2024-07-28","launch_site_code":"AFWTR","launch_vehicle":null,"mission":null,"orbit_class":"UNKNOWN","rcs_meters":null,"size_class":null,"mass_kg":null,"dimensions":null,"purposes":["comms"],"wikipedia_slug":null,"has_3d_model":false,"image_url":null,"decayed_at":null,"tle_current":{"epoch":"2026-09-21T22:25:11.258112Z","epoch_age_seconds":61746,"freshness":"FRESH","line1":"1 60317U 24133S   26264.93415808  .00000885  00000+0  37329-4 0  9996","line2":"2 60317  53.1603 102.8713 0001221  83.2945 276.8196 15.34388053121818","mean_motion":15.34388053,"eccentricity":0.0001221,"inclination_deg":53.1603,"raan_deg":102.8713,"arg_perigee_deg":83.2945,"mean_anomaly_deg":276.8196,"bstar":3.7329e-5,"rev_number":12181,"period_min":93.848488795552,"perigee_km":461.90347851021,"apogee_km":463.57402036823,"semimajor_km":6840.8757494392,"source":"CELESTRAK","updated_at":"2026-09-22T09:00:49.217375Z"}}}